Weather Roundup
Issued by NWS

Home | Current Version | Previous Version | Text Only | Print | Product List | Glossary On
Versions: 1 2 3 4 5 6 7 8 9 10 11 12 13 14 15 16 17 18 19 20 21 22 23 24 25 26 27 28 29 30 31 32 33 34 35 36 37 38 39 40 41 42 43 44 45 46 47 48 49 50
000
NZUS93 KARX 292010
HRRWXR

CURRENT HOURLY OBSERVATIONS ACROSS
MUCH OF THE UPPER MISSISSIPPI VALLEY
NATIONAL WEATHER SERVICE LA CROSSE WI
300 PM CDT FRI JUL 29 2016


...SOUTHEAST MINNESOTA...


CITY           SKY/WX    TMP DP  RH WIND       PRES   REMARKS
ROCHESTER      PTSUNNY   75  61  61 N14       30.04F
ROCHESTER/MAYO FAIR      75  57  52 N6        30.04F
WINONA         CLOUDY    77  61  57 N5        30.02S
AUSTIN         MOSUNNY   75  59  57 N10G18    30.02F
ALBERT LEA     PTSUNNY   73  63  68 NE10      30.03F
DODGE CENTER   MOSUNNY   73  57  56 NE8       30.04F
PRESTON        PTSUNNY   71  61  68 NE10G16   30.03F
OWATONNA       MOSUNNY   75  61  60 NE9       30.04F
FARIBAULT      MOSUNNY   75  55  50 N8        30.05F
$$

...ELSEWHERE IN MINNESOTA...


CITY           SKY/WX    TMP DP  RH WIND       PRES   REMARKS
MINNEAPOLIS    MOSUNNY   78  50  37 VRB6G16   30.05F
INTNL FALLS    PTSUNNY   76  57  51 NE6       30.07F
DULUTH         MOSUNNY   73  48  41 MISG      30.11F
RED WING       MOSUNNY   77  52  41 N5        30.02F
REDWOOD FALLS  SUNNY     79  54  41 N9        30.06F
MANKATO        SUNNY     75  57  53 NE9G18    30.05F
WORTHINGTON    MOSUNNY   76  59  55 NE9       30.08F
FAIRMONT       PTSUNNY   75  61  60 NE7       30.04F
$$

...SOUTHWEST WISCONSIN...


CITY           SKY/WX    TMP DP  RH WIND       PRES   REMARKS
LA CROSSE      CLOUDY    76  64  66 NE3       30.00F
PRAIRIE DU CHI CLOUDY    66  62  87 CALM      29.99F
BOSCOBEL       CLOUDY    67  64  90 NE3       30.00F
LONE ROCK      CLOUDY    69  65  86 N6        30.00F
PLATTEVILLE    CLOUDY    70  68  94 N10       29.99S
FORT MC COY    CLOUDY    73  64  73 E10G16    30.02S
CAMP DOUGLAS   CLOUDY    70  64  83 NE7       30.02F
MAUSTON-NEW LI CLOUDY    70  65  84 NE3       30.01F
VIROQUA        CLOUDY    71  64  80 E6        30.02F
WIS DELLS      CLOUDY    68  64  85 NE9       30.00F
$$

...ELSEWHERE IN WISCONSIN...


CITY           SKY/WX    TMP DP  RH WIND       PRES   REMARKS
MILWAUKEE      CLOUDY    75  66  73 NE14      29.97F
MADISON        CLOUDY    72  66  81 NE10      29.98S
GREEN BAY      CLOUDY    75  66  73 NE12      30.02F
EAU CLAIRE     MOSUNNY   76  56  49 VRB3      30.03F
BLACK RVR FLS  CLOUDY    77  62  60 E7        30.01S
MEDFORD        CLOUDY    72  60  66 E6        30.06S
WAUSAU         CLOUDY    73  60  63 E9        30.03F
WIS RAPIDS     CLOUDY    74  61  63 E9        30.04F
MARSHFIELD     CLOUDY    74  61  63 NE7       30.03F
RICE LAKE      SUNNY     75  53  47 CALM      30.07F
$$

...NORTHEAST IOWA...


CITY           SKY/WX    TMP DP  RH WIND       PRES   REMARKS
WATERLOO       CLOUDY    68  62  81 N8        29.98F
DUBUQUE        CLOUDY    69  67  93 NE9       29.98S
DECORAH        CLOUDY    68  64  88 NE7       30.01R
MASON CITY     CLOUDY    73  60  63 N13       30.03F
CHARLES CITY   CLOUDY    70  66  88 NE7       30.02S
OELWEIN        CLOUDY    68  64  88 NE5       30.00S
$$

...ELSEWHERE IN IOWA...


CITY           SKY/WX    TMP DP  RH WIND       PRES   REMARKS
DES MOINES     CLOUDY    71  63  75 NW10      30.00F
IOWA CITY      LGT RAIN  75  68  78 N8        29.95F
FORT DODGE     CLOUDY    70  61  73 NE9       30.04S
MARSHALLTOWN   CLOUDY    68  66  93 N9        29.99S
CEDAR RAPIDS   CLOUDY    74  69  85 N5        29.95F
$$

...NORTHERN ILLINOIS...


CITY           SKY/WX    TMP DP  RH WIND       PRES   REMARKS
CHICAGO-OHARE  TSTM      74  68  81 NE12      29.94R
CHICAGO-MIDWAY TSTM      75  70  84 N10       29.91R
MOLINE         PTSUNNY   80  67  64 W6        29.91F
ROCKFORD       TSTM      74  70  87 CALM      29.94S
PEORIA         SUNNY     79  67  66 NW8       29.91F
$$

NOTE: "FAIR" INDICATES FEW OR NO CLOUDS BELOW 12,000 FEET WITH NO
SIGNIFICANT WEATHER AND/OR OBSTRUCTIONS TO VISIBILITY. WIND
SPEEDS ARE IN MILES-PER-HOUR.




USA.gov is the U.S. government's official web portal to all federal, state and local government web resources and services.